Lid_Strength_Index
1 1 1 1 1 1 1 2 2 2 3 3 3 3 3 3 3 3 3 3 3 4 4 3 2 2 5 9 8 5 -2 -2 4 6 7 7 7 8 8 7 6 8 8 7 5 5 6
1 1 1 1 1 1 1 1 2 2 2 2 3 3 3 3 3 3 3 4 4 4 4 3 2 2 6 12 6 5 6 7 6 8 7 7 7 6 7 7 7 6 7 7 6 6 6
1 1 1 1 1 1 2 2 2 2 2 2 2 2 3 3 4 3 4 4 4 4 4 3 2 2 7 10 6 6 6 9 8 8 10 7 6 7 6 7 6 7 9 8 7 6 6
1 1 1 1 2 2 2 2 2 2 2 2 2 3 3 3 3 4 4 4 4 3 3 2 1 5 11 7 6 5 6 7 8 9 9 7 5 7 8 7 7 8 9 11 8 7 7
1 1 1 1 1 2 2 2 2 2 2 2 2 3 3 3 4 4 4 4 3 2 2 2 7 9 11 4 7 5 6 7 8 9 9 5 7 9 9 10 11 10 13 11 10 7 7
1 1 1 1 1 2 2 2 2 2 2 2 3 3 3 3 4 4 4 4 3 3 3 2 3 11 10 10 7 6 7 6 8 9 8 9 10 11 11 11 14 13 12 11 11 9 8
1 1 2 2 2 2 2 2 2 2 2 2 3 3 3 4 4 4 6 8 11 11 8 11 12 11 9 7 7 7 7 7 8 10 12 10 11 12 11 9 9 11 12 11 10 7 9
2 2 2 2 2 2 2 2 2 3 3 3 3 3 3 4 5 5 6 9 10 8 11 7 8 8 8 8 9 8 7 8 10 12 11 12 12 10 9 9 10 11 12 12 9 8 9
2 2 3 3 3 3 2 3 2 3 3 3 3 3 3 4 5 7 9 8 6 6 11 9 8 8 7 7 9 9 8 9 11 13 13 13 11 8 9 10 11 13 13 12 11 9 8
2 2 3 3 3 3 3 3 3 3 3 3 3 3 4 5 7 8 7 6 5 7 13 10 9 8 8 8 10 7 8 8 11 12 12 12 10 9 10 11 11 13 10 10 10 11 15
1 2 2 3 3 3 3 3 3 3 3 3 3 3 4 5 8 7 6 6 6 8 17 9 9 7 10 9 10 9 8 8 11 11 11 11 11 11 11 10 9 11 10 12 9 13 13
1 1 1 2 2 3 3 4 3 3 3 3 3 4 4 7 6 7 5 5 7 12 15 10 9 10 11 11 11 9 9 8 8 10 11 10 9 10 10 9 9 9 12 12 14 15 16
1 1 1 2 2 3 3 4 3 3 3 4 4 5 5 5 7 6 5 7 13 15 10 11 12 12 12 13 11 10 11 11 11 14 15 12 11 11 10 12 12 12 14 17 16 16 16
1 1 1 2 2 3 3 3 4 3 4 4 5 6 6 6 6 5 7 9 16 11 11 9 11 13 12 12 13 12 11 12 12 12 15 14 14 12 11 11 12 13 14 16 18 18 15
1 1 1 1 2 2 3 3 4 4 4 5 6 8 8 6 5 6 8 13 12 12 9 9 11 13 14 11 11 12 12 13 11 12 13 15 14 11 10 10 10 13 14 13 14 16 16
1 1 1 1 2 2 2 3 4 4 4 5 8 8 8 5 5 7 9 12 11 10 8 9 12 12 14 13 12 12 12 10 11 10 11 13 15 13 11 10 11 12 11 14 14 18 20
1 1 1 2 2 2 2 3 4 5 5 6 9 8 6 5 6 8 11 11 10 7 8 9 11 12 12 12 12 13 12 10 9 11 11 14 15 13 13 13 14 12 12 12 13 15 17
2 2 2 2 2 2 1 1 4 5 6 8 10 11 5 6 9 12 11 9 9 9 9 8 9 10 11 12 13 13 11 10 9 11 12 13 15 15 13 12 10 11 12 12 13 16 16
2 2 1 1 1 1 1 2 4 6 6 9 11 11 6 6 12 12 10 9 9 9 9 9 10 9 10 11 13 12 11 8 9 10 12 12 15 16 15 13 11 11 11 12 13 14 16
2 1 1 1 1 1 1 1 3 6 6 9 10 10 7 8 10 11 11 10 10 6 8 8 9 9 11 12 12 11 12 10 9 8 5 9 16 15 16 15 11 12 10 11 13 14 14
2 1 1 1 1 1 1 1 3 5 7 9 10 11 8 11 10 10 10 10 10 10 7 8 9 9 10 13 11 11 10 12 8 7 11 11 14 14 12 11 10 10 10 11 12 12 13
2 2 1 1 1 1 1 1 3 5 7 9 9 9 10 10 9 10 11 11 10 9 9 9 10 8 8 11 10 12 10 11 10 10 12 11 13 12 13 10 10 11 10 10 10 11 11
3 2 2 1 1 1 1 1 1 5 7 10 9 8 8 11 10 11 11 10 9 8 7 7 7 9 9 8 8 9 8 9 9 11 11 10 11 13 15 12 12 13 11 11 10 9 10
3 3 2 1 1 1 1 1 1 4 7 9 9 9 9 11 10 10 8 8 9 8 9 7 7 9 7 5 6 8 8 8 7 9 10 11 12 13 15 14 17 12 9 8 10 9 8
3 3 2 2 1 1 1 1 1 3 6 9 9 9 8 11 9 8 8 8 8 7 8 7 6 6 5 7 10 11 11 11 10 9 10 10 12 14 15 16 13 11 9 10 10 10 7
3 3 3 2 1 1 1 1 1 2 5 7 8 8 8 9 9 7 8 8 10 10 9 7 5 4 6 9 11 15 16 15 13 11 10 10 10 12 14 16 17 11 8 7 8 13 8
2 3 3 2 1 1 1 1 1 1 4 7 9 8 8 9 7 7 9 9 7 8 10 8 7 7 7 11 13 14 15 12 14 14 14 13 13 14 15 15 13 9 7 6 13 12 8
3 3 2 2 1 1 1 1 1 1 3 6 8 7 8 9 8 5 5 7 8 9 10 8 9 9 10 12 13 13 14 13 14 13 13 13 14 15 15 16 16 7 8 10 8 6 6
2 3 2 2 1 1 1 1 1 1 2 5 9 7 6 9 8 6 4 4 5 6 8 8 8 9 8 11 11 11 13 13 13 15 11 14 11 13 12 13 8 7 8 5 5 7 6